Time,TemperatureF,DewpointF,PressureIn,WindDirection,WindDirectionDegrees,WindSpeedMPH,WindSpeedGustMPH,Humidity,HourlyPrecipIn,Conditions,Clouds,dailyrainin,SoftwareType,DateUTC
2013-03-15 00:02:00,39.0,24.0,30.08,SSE,168,2.0,7.0,54,0.00,,,0.00,,2013-03-15 05:02:00,
2013-03-15 00:12:00,39.0,24.0,30.08,SSE,168,2.0,7.0,54,0.00,,,0.00,,2013-03-15 05:12:00,
2013-03-15 00:22:00,39.0,23.0,30.08,SSE,167,2.0,6.0,53,0.00,,,0.00,,2013-03-15 05:22:00,
2013-03-15 00:32:00,39.0,24.0,30.07,South,179,3.0,6.0,54,0.00,,,0.00,,2013-03-15 05:32:00,
2013-03-15 00:42:00,39.0,24.0,30.07,South,179,3.0,6.0,54,0.00,,,0.00,,2013-03-15 05:42:00,
2013-03-15 00:52:00,39.0,25.0,30.06,South,178,3.0,6.0,56,0.00,,,0.00,,2013-03-15 05:52:00,
2013-03-15 01:02:00,39.0,24.0,30.05,South,176,3.0,6.0,55,0.00,,,0.00,,2013-03-15 06:02:00,
2013-03-15 01:12:00,39.0,24.0,30.05,South,176,3.0,6.0,55,0.00,,,0.00,,2013-03-15 06:12:00,
2013-03-15 01:22:00,39.0,24.0,30.05,South,169,2.0,7.0,55,0.00,,,0.00,,2013-03-15 06:22:00,
2013-03-15 01:32:00,39.0,24.0,30.04,SSE,167,2.0,7.0,55,0.00,,,0.00,,2013-03-15 06:32:00,
2013-03-15 01:42:00,39.0,24.0,30.04,SSE,167,2.0,7.0,55,0.00,,,0.00,,2013-03-15 06:42:00,
2013-03-15 01:52:00,39.0,25.0,30.04,SSE,168,2.0,7.0,56,0.00,,,0.00,,2013-03-15 06:52:00,
2013-03-15 02:02:00,38.0,24.0,30.03,SSE,168,3.0,7.0,57,0.00,,,0.00,,2013-03-15 07:02:00,
2013-03-15 02:12:00,38.0,24.0,30.03,SSE,168,3.0,7.0,57,0.00,,,0.00,,2013-03-15 07:12:00,
2013-03-15 02:22:00,38.0,24.0,30.03,SSE,168,3.0,7.0,57,0.00,,,0.00,,2013-03-15 07:22:00,
2013-03-15 02:32:00,38.0,24.0,30.03,SSW,199,5.0,5.0,57,0.00,,,0.00,,2013-03-15 07:32:00,
2013-03-15 02:42:00,38.0,24.0,30.03,SSW,199,5.0,5.0,57,0.00,,,0.00,,2013-03-15 07:42:00,
2013-03-15 02:52:00,38.0,25.0,30.03,SSW,199,3.0,5.0,59,0.00,,,0.00,,2013-03-15 07:52:00,
2013-03-15 03:02:00,39.0,25.0,30.02,SSW,203,2.0,5.0,58,0.00,,,0.00,,2013-03-15 08:02:00,
2013-03-15 03:12:00,39.0,25.0,30.02,SSW,203,2.0,5.0,58,0.00,,,0.00,,2013-03-15 08:12:00,
2013-03-15 03:22:00,40.0,25.0,30.01,SSW,205,4.0,8.0,55,0.00,,,0.00,,2013-03-15 08:22:00,
2013-03-15 03:32:00,40.0,26.0,30.01,SSW,206,7.0,7.0,58,0.00,,,0.00,,2013-03-15 08:32:00,
2013-03-15 03:42:00,40.0,26.0,30.01,SSW,206,7.0,7.0,58,0.00,,,0.00,,2013-03-15 08:42:00,
2013-03-15 03:52:00,40.0,26.0,30.01,SSW,206,7.0,7.0,58,0.00,,,0.00,,2013-03-15 08:52:00,
2013-03-15 04:02:00,40.0,27.0,29.99,SW,219,7.0,7.0,60,0.00,,,0.00,,2013-03-15 09:02:00,
2013-03-15 04:12:00,40.0,27.0,29.99,SW,219,7.0,7.0,60,0.00,,,0.00,,2013-03-15 09:12:00,
2013-03-15 04:22:00,41.0,28.0,29.98,SW,227,7.0,10.0,60,0.00,,,0.00,,2013-03-15 09:22:00,
2013-03-15 04:33:00,41.0,29.0,29.98,SW,222,7.0,11.0,63,0.00,,,0.00,,2013-03-15 09:33:00,
2013-03-15 04:52:00,41.0,30.0,29.98,SW,220,7.0,11.0,64,0.00,,,0.00,,2013-03-15 09:52:00,
2013-03-15 05:03:00,41.0,30.0,29.98,SW,226,3.0,11.0,64,0.00,,,0.00,,2013-03-15 10:03:00,
2013-03-15 05:12:00,41.0,30.0,29.98,SW,226,3.0,11.0,64,0.00,,,0.00,,2013-03-15 10:12:00,
2013-03-15 05:23:00,41.0,30.0,29.98,SW,220,4.0,7.0,64,0.00,,,0.00,,2013-03-15 10:23:00,
2013-03-15 05:33:00,40.0,29.0,29.97,SW,223,4.0,7.0,65,0.00,,,0.00,,2013-03-15 10:33:00,
2013-03-15 05:52:00,40.0,30.0,29.97,SW,220,5.0,7.0,67,0.00,,,0.00,,2013-03-15 10:52:00,
2013-03-15 06:03:00,41.0,31.0,29.97,SW,224,4.0,7.0,67,0.00,,,0.00,,2013-03-15 11:03:00,
2013-03-15 06:12:00,41.0,31.0,29.97,SW,224,4.0,7.0,67,0.00,,,0.00,,2013-03-15 11:12:00,
2013-03-15 06:22:00,41.0,31.0,29.97,SW,217,2.0,8.0,68,0.00,,,0.00,,2013-03-15 11:22:00,
2013-03-15 06:32:00,40.0,31.0,29.96,SW,222,6.0,7.0,69,0.00,,,0.00,,2013-03-15 11:32:00,
2013-03-15 06:42:00,40.0,31.0,29.96,SW,222,6.0,7.0,69,0.00,,,0.00,,2013-03-15 11:42:00,
2013-03-15 06:52:00,41.0,32.0,29.96,SW,216,3.0,7.0,70,0.00,,,0.00,,2013-03-15 11:52:00,
2013-03-15 07:02:00,41.0,32.0,29.96,SW,223,5.0,7.0,69,0.00,,,0.00,,2013-03-15 12:02:00,
2013-03-15 07:12:00,41.0,32.0,29.96,SW,230,2.0,10.0,69,0.00,,,0.00,,2013-03-15 12:12:00,
2013-03-15 07:23:00,41.0,32.0,29.96,SW,230,2.0,10.0,69,0.00,,,0.00,,2013-03-15 12:23:00,
2013-03-15 07:32:00,42.0,33.0,29.96,SW,236,5.0,10.0,69,0.00,,,0.00,,2013-03-15 12:32:00,
2013-03-15 07:42:00,42.0,33.0,29.96,SW,236,5.0,10.0,69,0.00,,,0.00,,2013-03-15 12:42:00,
2013-03-15 07:52:00,42.0,32.0,29.96,SW,227,6.0,10.0,68,0.00,,,0.00,,2013-03-15 12:52:00,
2013-03-15 08:02:00,43.0,33.0,29.95,SW,236,6.0,10.0,68,0.00,,,0.00,,2013-03-15 13:02:00,
2013-03-15 08:12:00,43.0,33.0,29.95,SW,236,6.0,10.0,68,0.00,,,0.00,,2013-03-15 13:12:00,
2013-03-15 08:22:00,44.0,34.0,29.96,WSW,240,5.0,13.0,67,0.00,,,0.00,,2013-03-15 13:22:00,
2013-03-15 08:32:00,45.0,35.0,29.95,SW,230,6.0,12.0,68,0.00,,,0.00,,2013-03-15 13:32:00,
2013-03-15 08:42:00,45.0,35.0,29.95,SW,230,6.0,12.0,68,0.00,,,0.00,,2013-03-15 13:42:00,
2013-03-15 08:52:00,46.0,35.0,29.95,WSW,237,10.0,12.0,64,0.00,,,0.00,,2013-03-15 13:52:00,
2013-03-15 09:02:00,47.0,35.0,29.95,WSW,258,5.0,12.0,64,0.00,,,0.00,,2013-03-15 14:02:00,
2013-03-15 09:12:00,47.0,35.0,29.95,WSW,258,5.0,12.0,64,0.00,,,0.00,,2013-03-15 14:12:00,
2013-03-15 09:22:00,48.0,36.0,29.95,WSW,243,6.0,12.0,63,0.00,,,0.00,,2013-03-15 14:22:00,
2013-03-15 09:32:00,50.0,38.0,29.95,SW,226,5.0,16.0,64,0.00,,,0.00,,2013-03-15 14:32:00,
2013-03-15 09:42:00,50.0,38.0,29.95,SW,226,5.0,16.0,64,0.00,,,0.00,,2013-03-15 14:42:00,
2013-03-15 09:52:00,51.0,39.0,29.95,SW,232,8.0,16.0,64,0.00,,,0.00,,2013-03-15 14:52:00,
2013-03-15 10:02:00,52.0,38.0,29.94,SW,230,7.0,16.0,59,0.00,,,0.00,,2013-03-15 15:02:00,
2013-03-15 10:13:00,52.0,38.0,29.94,SW,230,7.0,16.0,59,0.00,,,0.00,,2013-03-15 15:13:00,
2013-03-15 10:22:00,53.0,39.0,29.94,WSW,237,7.0,13.0,59,0.00,,,0.00,,2013-03-15 15:22:00,
2013-03-15 10:33:00,53.0,39.0,29.94,WSW,237,7.0,13.0,59,0.00,,,0.00,,2013-03-15 15:33:00,
2013-03-15 10:42:00,56.0,41.0,29.94,WSW,247,3.0,12.0,57,0.00,,,0.00,,2013-03-15 15:42:00,
2013-03-15 10:52:00,56.0,41.0,29.94,WSW,247,3.0,12.0,57,0.00,,,0.00,,2013-03-15 15:52:00,
2013-03-15 11:03:00,56.0,41.0,29.93,West,272,5.0,12.0,57,0.00,,,0.00,,2013-03-15 16:03:00,
2013-03-15 11:12:00,57.0,41.0,29.93,WSW,241,9.0,12.0,55,0.00,,,0.00,,2013-03-15 16:12:00,
2013-03-15 11:22:00,57.0,41.0,29.93,WSW,241,9.0,12.0,55,0.00,,,0.00,,2013-03-15 16:22:00,
2013-03-15 11:32:00,59.0,43.0,29.93,WSW,246,5.0,13.0,55,0.00,,,0.00,,2013-03-15 16:32:00,
2013-03-15 11:42:00,59.0,43.0,29.93,WSW,246,5.0,13.0,55,0.00,,,0.00,,2013-03-15 16:42:00,
2013-03-15 11:52:00,61.0,43.0,29.93,WNW,295,7.0,13.0,52,0.00,,,0.00,,2013-03-15 16:52:00,
2013-03-15 12:02:00,62.0,43.0,29.92,WNW,296,3.0,13.0,50,0.00,,,0.00,,2013-03-15 17:02:00,
2013-03-15 12:12:00,62.0,43.0,29.92,WNW,296,3.0,13.0,50,0.00,,,0.00,,2013-03-15 17:12:00,
2013-03-15 12:22:00,63.0,44.0,29.91,NW,308,11.0,14.0,50,0.00,,,0.00,,2013-03-15 17:22:00,
2013-03-15 12:32:00,64.0,43.0,29.90,NW,308,7.0,14.0,46,0.00,,,0.00,,2013-03-15 17:32:00,
2013-03-15 12:42:00,64.0,43.0,29.90,NW,308,7.0,14.0,46,0.00,,,0.00,,2013-03-15 17:42:00,
2013-03-15 12:52:00,65.0,45.0,29.89,WNW,301,4.0,14.0,49,0.00,,,0.00,,2013-03-15 17:52:00,
2013-03-15 13:02:00,65.0,45.0,29.89,WNW,296,7.0,14.0,49,0.00,,,0.00,,2013-03-15 18:02:00,
2013-03-15 13:12:00,65.0,45.0,29.89,WNW,296,7.0,14.0,49,0.00,,,0.00,,2013-03-15 18:12:00,
2013-03-15 13:22:00,66.0,45.0,29.88,WSW,244,5.0,14.0,47,0.00,,,0.00,,2013-03-15 18:22:00,
2013-03-15 13:32:00,67.0,46.0,29.87,NW,318,5.0,14.0,46,0.00,,,0.00,,2013-03-15 18:32:00,
2013-03-15 13:42:00,67.0,46.0,29.87,NW,318,5.0,14.0,46,0.00,,,0.00,,2013-03-15 18:42:00,
2013-03-15 13:52:00,68.0,46.0,29.87,NW,322,4.0,14.0,46,0.00,,,0.00,,2013-03-15 18:52:00,
2013-03-15 14:02:00,68.0,46.0,29.86,NNW,330,2.0,14.0,45,0.00,,,0.00,,2013-03-15 19:02:00,
2013-03-15 14:12:00,68.0,46.0,29.86,NNW,330,2.0,14.0,45,0.00,,,0.00,,2013-03-15 19:12:00,
2013-03-15 14:22:00,69.0,47.0,29.86,WNW,287,12.0,16.0,46,0.00,,,0.00,,2013-03-15 19:22:00,
2013-03-15 14:32:00,70.0,45.0,29.85,WNW,287,10.0,16.0,41,0.00,,,0.00,,2013-03-15 19:32:00,
2013-03-15 14:42:00,70.0,45.0,29.85,WNW,287,10.0,16.0,41,0.00,,,0.00,,2013-03-15 19:42:00,
2013-03-15 14:52:00,70.0,46.0,29.84,WNW,288,11.0,16.0,43,0.00,,,0.00,,2013-03-15 19:52:00,
2013-03-15 15:02:00,71.0,48.0,29.83,WNW,294,12.0,16.0,44,0.00,,,0.00,,2013-03-15 20:02:00,
2013-03-15 15:12:00,71.0,48.0,29.83,WNW,294,12.0,16.0,44,0.00,,,0.00,,2013-03-15 20:12:00,
2013-03-15 15:22:00,72.0,49.0,29.82,WNW,291,3.0,24.0,44,0.00,,,0.00,,2013-03-15 20:22:00,
2013-03-15 15:32:00,71.0,46.0,29.81,West,264,3.0,18.0,41,0.00,,,0.00,,2013-03-15 20:32:00,
2013-03-15 15:42:00,71.0,46.0,29.81,West,264,3.0,18.0,41,0.00,,,0.00,,2013-03-15 20:42:00,
2013-03-15 15:52:00,72.0,48.0,29.80,West,260,5.0,18.0,42,0.00,,,0.00,,2013-03-15 20:52:00,
2013-03-15 16:02:00,73.0,47.0,29.79,WSW,244,5.0,18.0,40,0.00,,,0.00,,2013-03-15 21:02:00,
2013-03-15 16:12:00,73.0,47.0,29.79,WSW,244,5.0,18.0,40,0.00,,,0.00,,2013-03-15 21:12:00,
2013-03-15 16:22:00,73.0,47.0,29.79,West,267,7.0,18.0,40,0.00,,,0.00,,2013-03-15 21:22:00,
2013-03-15 16:33:00,74.0,47.0,29.78,SW,227,20.0,20.0,38,0.00,,,0.00,,2013-03-15 21:33:00,
2013-03-15 16:43:00,74.0,47.0,29.78,SW,227,20.0,20.0,38,0.00,,,0.00,,2013-03-15 21:43:00,
2013-03-15 16:52:00,72.0,46.0,29.78,West,264,6.0,19.0,40,0.00,,,0.00,,2013-03-15 21:52:00,
2013-03-15 17:03:00,73.0,47.0,29.77,West,270,3.0,19.0,39,0.00,,,0.00,,2013-03-15 22:03:00,
2013-03-15 17:13:00,73.0,47.0,29.77,West,270,3.0,19.0,39,0.00,,,0.00,,2013-03-15 22:13:00,
2013-03-15 17:22:00,72.0,46.0,29.77,West,260,11.0,20.0,40,0.00,,,0.00,,2013-03-15 22:22:00,
2013-03-15 17:32:00,72.0,46.0,29.76,WSW,247,5.0,20.0,40,0.00,,,0.00,,2013-03-15 22:32:00,
2013-03-15 17:42:00,72.0,46.0,29.76,WSW,247,5.0,20.0,40,0.00,,,0.00,,2013-03-15 22:42:00,
2013-03-15 17:52:00,72.0,48.0,29.76,West,272,2.0,20.0,42,0.00,,,0.00,,2013-03-15 22:52:00,
2013-03-15 18:02:00,72.0,46.0,29.75,WSW,239,6.0,20.0,40,0.00,,,0.00,,2013-03-15 23:02:00,
2013-03-15 18:12:00,72.0,46.0,29.75,WSW,239,6.0,20.0,40,0.00,,,0.00,,2013-03-15 23:12:00,
2013-03-15 18:22:00,72.0,48.0,29.75,WSW,240,3.0,14.0,42,0.00,,,0.00,,2013-03-15 23:22:00,
2013-03-15 18:32:00,71.0,47.0,29.75,WSW,246,12.0,21.0,43,0.00,,,0.00,,2013-03-15 23:32:00,
2013-03-15 18:42:00,71.0,47.0,29.75,WSW,246,12.0,21.0,43,0.00,,,0.00,,2013-03-15 23:42:00,
2013-03-15 18:52:00,70.0,47.0,29.75,WSW,243,5.0,21.0,44,0.00,,,0.00,,2013-03-15 23:52:00,
2013-03-15 19:02:00,69.0,46.0,29.75,NW,304,8.0,21.0,44,0.00,,,0.00,,2013-03-16 00:02:00,
2013-03-15 19:12:00,69.0,46.0,29.75,NW,304,8.0,21.0,44,0.00,,,0.00,,2013-03-16 00:12:00,
2013-03-15 19:22:00,69.0,48.0,29.74,WNW,296,8.0,14.0,48,0.00,,,0.00,,2013-03-16 00:22:00,
2013-03-15 19:32:00,68.0,46.0,29.74,SW,227,8.0,15.0,46,0.00,,,0.00,,2013-03-16 00:32:00,
2013-03-15 19:42:00,68.0,46.0,29.74,SW,227,8.0,15.0,46,0.00,,,0.00,,2013-03-16 00:42:00,
2013-03-15 19:52:00,68.0,46.0,29.74,WSW,253,5.0,15.0,45,0.00,,,0.00,,2013-03-16 00:52:00,
2013-03-15 20:02:00,68.0,46.0,29.74,WSW,251,11.0,15.0,46,0.00,,,0.00,,2013-03-16 01:02:00,
2013-03-15 20:12:00,68.0,46.0,29.74,WSW,251,11.0,15.0,46,0.00,,,0.00,,2013-03-16 01:12:00,
2013-03-15 20:21:00,68.0,45.0,29.74,WSW,258,7.0,16.0,44,0.00,,,0.00,,2013-03-16 01:21:00,
2013-03-15 20:32:00,68.0,46.0,29.74,WSW,243,12.0,20.0,45,0.00,,,0.00,,2013-03-16 01:32:00,
2013-03-15 20:42:00,68.0,46.0,29.74,WSW,243,12.0,20.0,45,0.00,,,0.00,,2013-03-16 01:42:00,
2013-03-15 20:52:00,68.0,47.0,29.73,SW,236,13.0,20.0,47,0.00,,,0.00,,2013-03-16 01:52:00,
2013-03-15 21:02:00,68.0,48.0,29.73,SW,234,11.0,20.0,48,0.00,,,0.00,,2013-03-16 02:02:00,
2013-03-15 21:12:00,68.0,48.0,29.73,SW,234,11.0,20.0,48,0.00,,,0.00,,2013-03-16 02:12:00,
2013-03-15 21:23:00,67.0,48.0,29.73,West,260,7.0,24.0,51,0.00,,,0.00,,2013-03-16 02:23:00,
2013-03-15 21:32:00,67.0,48.0,29.73,WSW,250,10.0,24.0,51,0.00,,,0.00,,2013-03-16 02:32:00,
2013-03-15 21:42:00,67.0,48.0,29.73,WSW,250,10.0,24.0,51,0.00,,,0.00,,2013-03-16 02:42:00,
2013-03-15 21:52:00,66.0,48.0,29.73,WSW,240,7.0,24.0,53,0.00,,,0.00,,2013-03-16 02:52:00,
2013-03-15 22:02:00,66.0,48.0,29.73,SW,233,13.0,24.0,53,0.00,,,0.00,,2013-03-16 03:02:00,
2013-03-15 22:12:00,66.0,48.0,29.73,SW,233,13.0,24.0,53,0.00,,,0.00,,2013-03-16 03:12:00,
2013-03-15 22:22:00,66.0,48.0,29.73,SW,233,13.0,24.0,53,0.00,,,0.00,,2013-03-16 03:22:00,
2013-03-15 22:32:00,66.0,48.0,29.73,WSW,254,7.0,22.0,53,0.00,,,0.00,,2013-03-16 03:32:00,
2013-03-15 22:43:00,66.0,48.0,29.73,WSW,254,7.0,22.0,53,0.00,,,0.00,,2013-03-16 03:43:00,
2013-03-15 22:53:00,66.0,49.0,29.72,WSW,247,10.0,22.0,54,0.00,,,0.00,,2013-03-16 03:53:00,
2013-03-15 23:02:00,66.0,49.0,29.73,WSW,257,10.0,22.0,55,0.00,,,0.00,,2013-03-16 04:02:00,
2013-03-15 23:13:00,66.0,49.0,29.73,WSW,257,10.0,22.0,55,0.00,,,0.00,,2013-03-16 04:13:00,
2013-03-15 23:22:00,66.0,50.0,29.72,WSW,237,9.0,22.0,56,0.00,,,0.00,,2013-03-16 04:22:00,
2013-03-15 23:32:00,66.0,50.0,29.72,WSW,250,10.0,31.0,56,0.00,,,0.00,,2013-03-16 04:32:00,
2013-03-15 23:43:00,66.0,50.0,29.72,WSW,250,10.0,31.0,56,0.00,,,0.00,,2013-03-16 04:43:00,
2013-03-15 23:52:00,66.0,50.0,29.72,WSW,240,13.0,31.0,56,0.00,,,0.00,,2013-03-16 04:52:00,